GFSSE_sfc_temp_273.txt.gz
Temp
96 90 80 81 81 81 81 80 80 80 80 80 80 80 80 80 80 80 80 80 80 81 81 81 81 81 81 81 81 80 80 80 80 81 82 82 81 81 80 81 82 91 81
97 91 80 80 81 81 81 80 80 80 80 80 80 80 80 80 79 79 79 80 80 81 81 81 81 81 81 81 81 80 80 80 80 80 81 82 82 82 81 81 81 86 82
94 88 88 81 81 81 80 80 80 79 79 79 79 79 79 79 80 80 80 80 80 81 81 81 81 81 81 81 81 80 80 80 80 80 81 89 95 82 82 81 81 81 80
94 93 89 80 80 80 80 79 79 79 79 79 79 80 79 79 79 79 80 80 80 81 81 81 81 80 80 80 80 80 80 80 80 80 89 96 99 82 82 82 82 81 80
95 92 85 80 80 80 80 79 79 79 79 79 79 79 79 79 79 79 79 80 80 80 80 80 80 80 80 80 79 79 79 79 80 82 93 98 97 85 82 81 81 81 80
96 93 82 79 80 79 80 79 79 79 79 79 79 79 78 78 79 79 79 79 79 79 80 79 79 78 79 79 79 79 79 79 79 91 94 95 94 82 81 80 80 80 80
97 92 88 80 79 80 80 79 78 78 77 77 77 77 77 77 77 77 77 77 77 77 77 77 77 77 77 78 78 78 79 79 85 92 95 95 94 80 80 79 79 79 79
98 94 88 80 79 79 78 78 77 76 76 76 76 76 76 76 76 76 76 76 76 76 76 76 76 76 76 77 77 77 78 78 87 93 96 98 79 80 80 80 80 80 80
99 95 92 89 82 78 77 76 76 75 75 75 75 76 76 76 76 76 74 75 75 75 75 75 75 75 75 76 76 77 77 78 85 92 95 87 79 80 80 80 81 81 80
100 98 95 91 90 86 86 76 76 75 75 75 76 77 77 77 78 77 77 74 74 74 74 74 74 75 75 76 77 77 77 78 88 93 97 90 80 81 80 80 80 81 79
99 100 100 96 88 86 90 82 77 77 78 78 79 78 82 87 85 87 75 74 75 75 75 75 75 75 76 76 77 77 78 88 93 95 95 79 80 80 80 80 80 80 80
95 98 99 85 90 88 93 89 89 88 85 83 83 83 86 83 82 84 83 77 78 76 77 77 77 77 79 87 88 81 88 91 92 93 94 79 78 79 80 80 80 80 80
95 96 95 85 84 88 86 92 91 89 87 85 82 82 82 84 82 84 84 85 83 82 85 84 85 85 81 83 84 85 87 88 89 91 91 78 77 78 78 79 79 79 79
92 92 90 87 85 86 88 89 89 87 85 85 82 80 81 82 79 79 81 82 81 83 81 81 83 80 80 82 84 84 85 86 87 88 88 78 77 77 77 78 78 79 77
90 88 86 86 82 83 80 82 85 86 84 83 83 79 79 80 76 79 79 81 80 81 80 80 80 79 80 82 84 83 82 83 84 86 86 81 79 77 77 77 77 78 77
89 86 88 85 82 81 80 81 82 82 82 83 80 77 77 78 75 79 79 80 80 80 79 79 78 79 80 82 80 80 79 79 81 81 84 85 77 75 76 77 77 77 77
88 85 83 80 79 77 79 80 84 84 85 82 80 76 76 75 76 77 79 78 78 79 78 79 78 80 80 81 78 77 79 78 79 77 79 80 75 71 73 76 75 75 75
85 79 79 82 78 76 77 81 83 82 82 81 81 80 76 76 76 77 78 76 77 78 79 78 78 77 77 77 75 77 74 75 76 74 74 73 74 70 70 70 70 70 69
77 77 75 77 76 76 77 80 79 76 81 81 81 79 75 76 76 77 75 75 76 77 77 77 76 75 75 76 77 76 76 76 75 76 73 74 73 71 65 67 67 68 69
78 76 74 74 74 75 78 78 80 79 80 80 79 77 75 76 75 76 76 74 76 75 75 74 73 75 75 75 76 75 75 75 77 75 74 76 72 69 71 69 64 63 67
76 75 74 73 73 76 78 79 79 79 78 78 77 75 75 75 75 74 76 74 76 71 70 71 72 72 73 74 70 70 73 75 74 74 75 74 73 75 74 69 72 70 70
77 75 75 73 73 77 80 80 81 79 79 78 76 73 74 74 74 73 72 72 71 73 69 69 69 70 74 72 69 71 65 69 74 73 73 72 70 73 72 73 72 70 72
75 75 75 75 75 77 78 77 76 75 75 76 74 75 73 74 74 72 71 71 72 73 71 68 68 67 69 73 71 68 65 63 69 73 72 71 70 71 72 71 70 71 70
78 77 77 76 75 77 75 76 74 77 77 77 77 74 73 73 73 73 72 71 70 72 68 69 70 69 67 68 71 72 69 68 62 64 73 72 73 72 70 71 71 73 71
78 73 77 75 74 75 75 77 75 76 74 76 75 71 69 71 72 73 72 71 70 72 69 68 67 66 70 68 68 69 68 70 68 65 63 67 73 74 73 72 71 72 71
78 76 74 73 73 74 75 75 74 73 74 74 72 71 73 73 73 72 73 72 70 70 69 69 68 66 66 66 69 69 68 66 65 65 64 66 65 69 71 72 71 71 71

GFSSE_sfc_temp_279.txt.gz
Temp
75 78 80 80 80 80 80 80 80 79 79 79 79 79 79 79 79 79 79 79 80 80 81 81 81 81 81 81 80 80 80 79 80 80 81 81 81 81 81 81 83 82 80
78 78 80 80 80 80 80 80 79 79 79 79 79 79 79 79 79 79 79 79 80 81 81 81 81 81 80 81 80 80 80 79 79 79 80 81 81 82 81 81 82 81 80
77 77 80 80 80 80 79 79 79 79 79 79 79 79 79 79 79 79 79 79 80 81 81 81 80 80 80 80 80 79 79 79 79 79 80 77 78 81 81 81 81 80 79
78 76 77 80 80 80 79 79 79 79 79 79 79 79 79 79 79 79 79 79 80 81 81 80 79 79 79 79 79 79 79 79 79 80 77 79 81 84 81 81 81 80 80
78 77 78 79 79 79 79 79 78 79 79 79 79 79 78 78 77 77 77 78 78 78 78 78 78 78 78 78 78 78 78 78 79 79 73 76 77 83 81 81 81 80 80
76 76 78 79 79 79 79 79 79 79 78 78 78 78 78 77 77 76 77 77 77 77 77 77 77 77 77 77 78 78 78 78 79 73 77 80 80 82 81 80 81 81 79
74 76 77 79 79 79 79 78 78 77 77 77 77 77 77 76 76 76 76 76 76 76 76 76 76 76 76 76 77 77 77 78 77 73 76 79 75 77 79 77 79 79 79
76 76 78 79 78 78 78 77 77 76 76 76 77 77 77 77 76 76 76 76 76 76 76 76 76 76 76 76 77 77 77 78 78 73 75 75 77 77 78 74 74 78 78
78 76 75 76 77 78 76 76 76 76 76 76 76 76 77 77 76 75 76 76 76 76 76 76 76 76 77 77 77 77 77 78 74 73 77 75 77 78 77 77 79 79 79
77 77 74 73 74 71 73 77 77 77 77 77 77 77 77 77 77 77 76 76 77 77 77 77 77 77 77 77 78 79 78 78 70 71 78 75 77 78 79 78 79 80 79
79 77 75 74 73 72 72 75 77 78 77 78 76 78 75 69 70 74 77 77 77 77 78 77 77 77 78 77 78 79 79 69 69 73 74 77 77 79 76 76 79 79 78
77 77 77 76 76 74 79 73 70 75 71 70 70 69 68 68 70 75 75 78 77 78 77 77 77 77 76 69 69 74 69 70 71 72 72 78 78 80 80 78 76 78 78
80 79 80 79 78 76 77 72 72 70 68 68 68 67 66 67 66 66 67 66 66 73 68 70 69 68 68 68 68 68 72 70 70 72 74 75 76 77 78 78 78 78 77
80 79 79 77 75 76 75 76 72 72 68 66 66 66 63 63 63 64 65 65 64 64 65 64 64 66 67 69 70 70 68 70 70 71 71 74 74 75 77 77 78 78 77
77 77 76 75 73 74 73 72 70 69 68 66 65 65 64 63 62 63 63 63 63 63 63 63 64 64 65 67 67 68 68 69 69 69 67 74 73 74 75 76 76 77 77
77 76 75 73 72 73 71 71 69 69 67 65 64 64 65 62 62 62 61 62 62 62 63 63 63 62 63 65 66 67 69 68 68 67 66 66 72 72 73 74 74 74 72
77 76 71 71 72 71 70 69 69 68 68 64 64 65 65 63 63 61 60 60 60 61 62 63 62 63 62 65 63 65 65 66 66 66 65 64 63 71 72 72 72 71 71
76 70 71 74 73 71 69 69 72 70 66 65 63 64 65 65 63 60 61 59 60 60 61 60 59 60 60 61 61 61 64 63 63 64 63 61 62 63 68 70 71 71 70
72 71 70 70 69 68 68 67 68 67 66 65 63 63 64 65 65 60 60 59 59 59 58 58 58 57 57 59 67 60 60 61 63 66 63 62 61 60 60 68 68 69 70
72 71 70 69 67 67 66 66 67 66 64 63 63 62 63 63 64 60 59 59 58 57 56 57 56 58 57 57 64 62 59 61 60 60 61 65 65 62 58 59 57 62 67
70 68 68 67 65 65 64 63 63 62 62 61 62 63 63 62 62 59 58 58 57 56 55 57 55 55 56 56 55 56 59 63 64 60 59 59 62 64 60 62 62 60 61
68 68 67 66 65 65 64 63 64 63 61 61 60 61 61 62 61 61 57 56 56 55 55 54 53 52 53 55 52 50 50 59 59 58 60 59 57 59 61 63 63 62 60
66 67 66 66 64 65 65 63 62 62 60 58 58 57 59 62 62 60 59 57 56 56 53 53 53 52 50 52 53 51 47 48 52 55 59 56 57 55 56 58 60 59 57
67 68 67 66 65 65 64 62 63 59 57 57 57 57 58 61 61 61 60 58 56 55 54 54 55 51 50 48 51 55 52 50 45 46 52 54 56 57 54 55 56 57 57
69 68 67 65 64 64 63 63 60 59 59 61 56 56 57 57 59 63 60 58 56 55 54 54 53 52 50 49 48 48 50 49 48 46 44 48 52 53 53 54 55 54 55
68 68 67 64 62 63 63 63 61 59 59 59 55 54 55 55 57 59 60 58 57 56 55 54 53 53 51 50 49 49 47 47 47 46 43 45 45 51 52 55 56 57 57

GFSSE_sfc_temp_282.txt.gz
Temp
73 77 80 80 80 80 80 80 79 79 79 79 79 79 78 78 79 79 79 79 79 80 80 80 80 80 80 80 80 79 79 79 79 80 80 80 80 80 80 81 80 81 80
76 77 79 80 80 80 80 79 79 79 79 78 79 79 79 79 79 79 79 79 80 80 80 80 80 80 80 80 80 79 79 79 79 79 80 80 80 81 81 81 81 80 79
75 76 79 79 80 80 79 79 79 78 78 79 79 78 79 79 79 79 79 79 80 81 80 80 79 79 79 79 79 79 78 78 78 79 80 76 76 80 81 81 81 80 79
76 74 76 79 79 79 79 79 78 78 78 78 78 78 78 78 78 78 78 78 78 78 79 79 78 78 78 78 78 78 78 78 79 79 74 76 78 82 82 81 81 80 79
75 75 78 79 79 79 79 79 78 78 78 78 78 78 78 77 77 77 77 77 77 78 78 78 77 77 77 77 78 78 78 78 79 77 70 72 73 81 82 80 79 79 79
74 75 78 79 79 79 79 78 78 78 78 78 78 77 77 77 76 76 76 76 76 77 77 77 77 77 77 77 77 77 77 78 79 70 72 74 76 78 81 81 80 80 79
72 75 77 78 79 79 79 79 78 78 77 77 77 77 77 76 76 77 77 77 77 77 77 77 77 77 76 77 77 77 77 78 74 69 71 73 73 78 80 79 78 78 79
73 74 76 78 78 78 78 78 77 77 77 77 77 77 77 76 77 77 77 77 77 76 77 77 77 77 77 77 77 77 77 78 75 69 71 70 75 77 79 79 78 78 79
74 73 73 75 77 77 77 77 76 76 76 76 76 76 76 76 76 76 76 77 77 77 77 77 77 77 77 77 78 78 78 79 70 69 73 72 77 78 79 78 78 78 78
72 71 70 70 71 70 72 77 77 77 77 76 77 77 76 76 76 77 76 76 77 77 78 77 78 77 77 76 76 77 78 75 65 67 71 72 77 79 78 77 79 79 79
72 70 70 69 69 68 70 75 77 78 78 76 74 76 73 67 67 71 76 77 78 77 77 77 77 76 76 74 76 76 74 67 68 69 71 76 78 80 80 79 78 78 79
69 70 69 69 69 68 76 71 69 73 68 67 66 65 65 64 68 71 73 75 76 75 76 75 75 74 71 66 66 70 67 66 69 71 72 75 76 77 78 78 78 78 78
72 72 72 71 70 70 72 67 67 66 65 65 65 63 63 64 63 63 63 63 63 70 65 66 65 65 65 64 65 65 67 67 65 67 73 74 75 77 77 77 78 78 77
73 74 74 73 71 70 71 69 67 65 64 64 63 63 62 60 61 61 61 61 60 60 61 61 61 63 64 65 65 64 66 66 65 65 69 74 74 76 76 76 76 77 76
73 74 74 71 70 69 71 67 66 64 63 63 63 63 61 60 60 60 59 59 59 59 59 60 61 61 62 64 64 66 65 65 64 64 64 73 73 74 75 76 75 74 74
76 73 72 71 70 69 68 67 65 63 63 63 62 62 63 60 59 58 58 58 57 58 58 59 59 59 59 62 63 64 64 64 63 63 62 64 72 72 73 73 73 72 72
75 74 71 70 69 69 68 65 63 65 67 64 63 63 63 60 59 58 56 56 56 57 58 59 59 59 60 62 60 62 62 62 62 62 62 61 61 71 72 72 72 71 71
74 71 71 74 69 67 66 65 65 65 63 64 63 61 63 62 60 57 56 56 56 57 57 56 56 56 56 58 57 57 59 60 60 60 60 59 59 61 67 71 72 71 71
73 70 69 70 69 67 66 65 64 63 62 61 61 60 62 63 62 57 55 54 56 55 55 55 55 54 54 55 60 57 57 58 59 62 59 58 58 59 58 68 69 70 71
71 71 70 69 67 66 64 63 62 61 60 60 60 60 61 60 60 56 55 55 55 54 53 54 54 54 54 52 61 59 56 58 60 57 58 60 58 57 57 57 57 65 69
71 68 68 66 65 66 64 61 60 58 58 58 59 61 60 59 59 55 54 55 54 52 51 53 52 52 54 51 52 53 58 62 61 57 56 56 57 57 57 57 57 56 61
68 68 67 67 65 66 65 61 61 59 57 58 58 59 60 59 58 57 54 53 53 52 52 51 50 50 49 49 49 47 48 57 58 56 54 55 54 56 58 58 57 56 56
67 66 66 65 65 66 63 61 59 59 57 56 55 55 57 59 59 56 55 53 52 51 50 49 49 49 47 49 49 49 45 45 47 51 53 54 53 52 53 55 56 56 56
66 66 65 65 64 64 62 61 63 61 56 54 54 54 55 58 58 58 56 55 53 51 51 51 51 48 47 46 49 51 48 47 44 45 50 50 52 55 51 51 53 55 54
66 64 64 64 63 61 61 63 62 57 55 55 53 53 53 54 57 60 56 55 53 52 51 51 50 48 47 46 46 45 46 46 44 44 42 46 50 51 50 50 51 51 53
66 65 64 64 62 61 61 61 60 58 55 56 52 52 52 51 53 56 58 54 53 53 52 51 49 49 48 47 46 46 45 45 44 44 42 42 43 49 49 52 51 52 53

GFSSE_sfc_temp_285.txt.gz
Temp
73 75 80 80 80 80 80 79 79 79 79 78 78 78 78 78 78 79 79 79 79 80 80 80 80 80 80 80 79 79 79 78 79 79 80 80 80 80 80 80 81 80 79
74 76 79 79 80 80 79 79 79 78 78 78 78 78 78 78 79 79 79 79 80 80 80 80 80 79 79 79 79 78 78 78 78 79 79 79 79 80 80 81 81 79 79
74 75 78 79 80 79 79 79 78 78 78 78 78 78 78 78 78 78 78 79 79 79 79 79 79 78 78 79 79 78 78 78 78 79 79 73 75 79 80 81 81 80 79
75 73 75 79 79 79 79 78 78 78 78 78 78 78 78 78 78 77 77 78 78 78 78 78 78 78 78 78 78 78 78 78 78 79 71 74 76 80 81 81 81 80 79
73 73 76 79 79 79 78 78 78 78 78 78 78 78 77 77 77 77 77 77 77 77 77 78 78 77 77 77 77 77 77 78 78 75 68 70 71 79 80 81 80 80 79
72 73 78 79 79 79 79 78 78 78 78 78 77 77 77 77 77 77 77 77 77 78 78 78 77 77 77 77 77 77 77 78 78 68 69 71 72 77 79 80 80 80 78
71 73 75 78 79 79 79 79 78 78 78 77 77 77 77 77 77 77 78 78 78 78 78 77 77 77 77 78 78 78 78 78 72 67 68 69 69 75 80 80 79 79 79
72 72 74 78 78 78 79 78 77 77 77 77 77 77 77 77 77 77 77 77 77 77 78 77 77 77 77 77 77 77 78 79 72 67 67 68 73 78 80 79 79 79 79
73 71 72 73 76 78 77 77 77 77 77 77 77 77 77 77 76 76 76 77 77 78 77 78 77 77 77 77 77 77 77 77 62 67 72 69 76 78 79 78 78 78 78
70 70 70 70 71 71 71 77 77 77 77 77 77 76 76 74 76 76 76 76 77 77 77 77 77 76 76 76 76 75 74 72 63 68 71 74 78 79 79 79 78 78 78
70 68 68 68 68 68 69 74 77 78 77 75 72 76 69 64 66 69 76 77 77 77 76 76 75 75 73 74 75 73 71 64 66 68 70 76 77 78 78 78 78 78 78
69 69 67 67 67 67 75 69 68 71 66 65 64 64 63 62 66 69 73 74 74 73 74 73 74 73 69 63 65 68 63 63 65 66 71 75 77 78 78 77 77 77 78
68 69 68 67 67 66 69 66 65 64 63 63 63 62 61 62 61 61 61 60 60 67 62 64 64 63 63 62 63 62 63 63 62 64 72 75 76 77 77 77 77 77 77
68 69 69 68 67 65 66 65 64 64 62 62 61 61 60 59 59 59 58 58 58 58 59 59 59 61 62 63 61 61 61 62 62 62 67 74 74 75 76 76 75 75 74
69 70 70 69 68 67 66 65 64 63 62 62 61 61 60 59 58 57 57 56 56 57 57 58 58 59 60 62 61 62 62 61 61 62 62 73 73 73 74 74 73 73 73
71 71 72 69 69 68 65 65 63 61 62 64 62 61 61 59 57 56 55 55 56 56 56 57 57 57 57 59 60 61 60 60 59 60 60 62 72 72 73 73 73 72 71
73 73 71 70 68 68 67 63 61 61 62 62 63 62 61 59 57 55 55 54 54 55 56 57 57 57 57 59 58 59 59 59 59 59 59 59 60 71 72 71 71 71 71
74 71 71 73 68 65 63 63 61 62 61 61 60 61 62 61 58 55 54 54 54 54 54 55 54 55 54 55 55 56 57 58 58 58 58 57 57 59 67 71 72 72 71
74 72 71 70 68 67 65 64 62 60 60 60 59 61 61 61 59 55 54 53 53 52 52 53 53 52 52 53 57 55 55 56 57 59 57 56 57 57 57 69 70 71 70
73 72 70 70 68 67 64 63 60 59 58 58 58 58 59 59 58 54 53 53 52 51 51 52 52 52 50 49 58 56 54 59 55 55 56 58 56 55 55 56 56 64 70
70 69 69 68 66 66 64 62 60 58 56 56 57 59 59 58 57 54 52 52 51 50 49 51 50 50 50 47 50 52 54 58 53 55 54 54 55 55 56 55 55 55 59
68 68 67 66 66 64 68 61 60 60 56 56 56 57 57 57 56 55 53 51 50 50 50 49 48 48 47 46 48 46 47 52 52 53 53 54 52 53 56 57 55 55 55
68 67 65 64 64 63 62 58 57 56 55 54 53 53 55 57 56 54 53 51 50 49 48 47 47 47 47 48 46 48 45 44 45 50 51 51 51 51 51 52 55 55 54
65 65 66 62 63 63 61 59 59 58 55 53 53 53 54 57 56 56 54 52 50 49 48 48 49 46 46 46 47 49 45 45 43 44 48 49 50 51 49 50 51 53 53
65 65 64 62 63 64 61 61 58 57 53 53 51 53 51 52 55 57 54 52 51 50 48 49 48 47 46 45 44 45 45 44 43 43 41 45 48 48 48 49 50 51 51
66 66 65 63 63 62 60 60 59 56 54 54 50 50 50 50 51 54 55 52 51 50 50 49 47 47 46 45 44 44 44 45 43 43 41 40 41 47 47 48 48 49 50

GFSSE_sfc_temp_288.txt.gz
Temp
72 75 80 80 80 79 79 79 79 79 78 79 79 79 78 78 79 79 79 79 79 80 80 80 80 80 80 80 79 79 78 78 79 79 80 80 80 80 80 80 80 81 79
73 75 80 80 80 79 79 79 78 78 78 78 78 78 78 78 78 79 79 80 81 81 81 80 79 79 80 79 79 79 79 78 78 79 79 78 78 79 80 81 81 81 79
74 75 78 79 80 79 79 78 78 78 78 78 78 78 78 78 78 78 78 78 78 79 79 79 78 78 78 78 78 78 78 78 78 79 78 77 77 78 80 81 81 80 79
74 73 75 79 79 79 78 78 78 78 78 78 78 78 78 78 78 77 77 78 78 78 78 78 78 78 78 78 78 78 78 78 78 78 75 76 77 79 80 81 81 80 79
72 73 75 79 79 79 78 78 78 78 78 78 78 78 77 77 77 77 77 77 78 78 78 78 78 78 78 78 78 78 78 78 79 75 74 74 75 78 79 80 81 80 79
72 73 78 78 79 78 78 78 78 78 78 77 77 77 77 78 77 78 78 78 78 78 78 78 78 77 78 78 78 78 78 78 78 73 72 73 75 75 78 79 80 79 78
71 72 75 78 78 79 78 78 78 78 77 77 77 77 77 78 78 78 78 78 78 78 78 78 78 78 77 77 78 78 78 78 74 71 72 72 73 75 79 80 80 79 79
71 72 74 78 78 78 79 78 77 77 77 77 77 77 77 77 77 77 77 78 78 78 78 78 77 77 77 77 77 77 77 75 72 72 74 73 75 77 79 78 79 78 79
71 71 71 72 76 78 78 77 77 77 77 77 76 76 76 76 76 77 76 77 77 77 77 77 77 76 76 76 76 75 75 74 70 72 76 76 77 79 79 78 78 78 78
71 70 69 71 72 72 73 77 77 77 77 76 76 76 75 73 75 76 75 77 77 77 76 76 76 75 76 75 74 74 73 72 71 73 74 77 77 79 79 79 79 78 78
71 70 68 69 69 69 70 74 76 78 76 73 75 74 68 66 67 70 76 76 75 75 75 75 75 73 71 73 73 72 70 68 71 72 73 76 77 78 78 78 78 78 78
70 71 68 67 67 68 74 68 68 69 66 65 65 64 63 64 67 69 71 72 73 72 73 74 73 71 68 66 67 68 67 67 68 70 75 76 77 77 77 77 77 77 77
70 71 69 66 67 67 68 66 65 64 63 63 64 62 62 63 62 62 62 61 61 67 64 65 65 65 65 65 65 65 67 67 66 67 74 75 75 77 77 76 76 75 75
68 70 70 67 66 66 66 65 64 64 63 62 62 62 61 61 60 60 60 59 60 60 61 62 63 63 64 65 65 65 65 66 66 66 70 74 74 75 75 75 75 74 74
66 68 68 67 67 66 65 64 63 63 62 62 62 62 61 60 58 59 58 59 59 60 60 61 61 62 63 64 65 65 64 64 65 65 66 73 73 74 74 74 73 73 72
68 68 69 68 68 67 65 64 63 61 61 62 62 62 61 59 57 58 58 58 58 59 59 60 60 61 62 64 63 64 63 63 64 64 65 66 73 72 73 73 73 73 72
70 70 68 68 68 67 65 63 61 61 62 62 62 61 60 59 58 57 57 57 57 58 59 60 59 60 61 63 62 62 63 62 63 63 64 64 64 71 72 73 72 72 72
70 69 69 72 68 67 64 63 62 62 61 61 61 61 61 60 59 58 57 56 57 57 58 58 58 58 58 60 60 61 61 62 62 62 62 61 63 64 68 72 71 72 71
71 68 68 69 67 66 63 63 61 60 60 60 60 60 61 60 59 57 56 55 55 56 56 59 56 57 56 57 61 60 60 61 62 63 61 61 61 62 62 67 70 71 71
71 68 68 66 64 64 62 60 60 59 59 60 60 59 59 59 58 56 55 55 55 55 55 56 55 54 54 55 62 60 60 61 60 60 60 62 61 61 62 62 62 67 70
68 67 66 64 62 62 60 59 59 57 58 58 59 59 58 58 57 55 55 55 54 53 53 55 54 54 52 52 57 57 58 59 59 59 59 60 60 61 62 62 63 63 65
66 66 64 63 62 62 61 60 60 60 58 58 57 57 58 57 56 56 55 54 54 54 53 53 53 53 53 50 54 55 53 56 58 58 58 59 59 60 61 62 62 61 61
66 64 64 64 63 61 61 59 59 60 58 57 55 56 57 57 57 56 55 54 53 53 52 51 53 52 52 52 50 55 50 51 51 55 56 56 57 58 59 59 61 61 60
64 63 64 64 63 62 61 59 58 58 57 56 56 55 56 57 57 56 55 55 54 53 52 53 53 52 52 52 53 52 50 52 51 52 55 55 55 57 56 57 59 60 59
65 64 64 64 62 63 61 60 58 57 57 55 55 54 55 55 56 57 55 54 54 53 52 53 52 51 51 52 52 51 51 50 50 51 50 53 56 56 56 56 57 58 59
66 65 64 63 62 62 60 60 59 58 56 53 53 54 54 53 54 56 56 55 54 53 53 52 52 51 51 51 51 51 52 53 51 51 51 49 50 54 55 57 58 58 59

GFSSE_sfc_temp_291.txt.gz
Temp
83 87 80 81 80 80 80 79 79 79 79 79 79 79 79 79 79 79 80 80 80 80 81 80 80 80 80 80 80 79 79 79 79 80 80 80 80 80 80 81 81 88 80
85 87 81 81 80 80 79 79 79 79 79 79 79 79 79 79 79 79 79 80 79 79 79 79 79 79 79 80 79 79 78 78 79 79 79 81 80 79 80 81 81 87 80
84 85 84 80 80 80 79 79 79 79 78 79 79 79 78 78 78 78 78 79 79 78 79 79 79 78 78 78 78 78 78 78 78 79 78 88 88 80 80 81 81 81 80
84 84 84 79 80 79 79 78 78 78 78 78 79 78 78 78 78 77 78 78 79 79 79 79 78 78 78 79 79 78 78 78 79 78 88 87 87 81 80 80 81 81 80
83 83 83 79 79 79 79 78 78 78 78 78 78 78 78 78 78 78 78 78 79 79 79 78 78 78 78 79 78 78 78 78 79 83 88 88 87 86 79 79 81 80 80
83 85 81 79 79 79 79 78 78 78 78 78 78 78 78 78 78 78 78 78 78 79 79 78 78 78 78 78 78 78 79 78 79 88 85 85 86 77 78 79 79 81 79
84 85 85 79 79 79 79 78 78 78 77 78 78 78 78 78 78 78 78 78 78 79 78 78 78 77 77 78 78 78 77 77 87 87 87 84 86 78 79 80 80 80 80
85 85 85 79 78 78 79 78 78 77 77 78 78 77 77 77 77 77 78 78 78 78 78 77 77 77 76 76 76 76 76 77 85 86 86 87 78 79 79 79 79 79 79
86 85 86 85 81 79 78 77 77 77 77 77 77 77 76 76 77 76 77 77 77 77 77 77 76 76 76 75 75 75 75 76 86 85 86 86 78 79 79 79 79 79 79
84 85 84 84 86 85 84 77 77 77 77 76 76 75 74 76 77 76 76 76 76 76 76 76 75 75 75 74 74 73 74 77 85 85 85 83 78 79 79 78 78 78 78
77 81 84 84 83 84 85 81 78 78 75 76 76 74 75 80 80 81 76 75 75 75 75 75 74 73 73 73 72 72 76 82 84 84 84 76 77 78 78 78 78 77 77
74 76 80 80 82 82 83 82 81 80 81 79 78 76 80 78 78 79 75 73 73 74 74 74 73 74 78 81 80 77 81 81 82 83 81 76 77 78 77 77 76 76 76
76 75 75 78 79 81 82 81 80 79 78 77 75 77 75 76 76 78 78 78 77 75 79 78 79 79 77 78 78 78 79 80 81 81 78 75 76 77 76 76 75 75 74
76 76 76 79 78 79 81 81 79 78 77 78 76 74 71 76 74 75 76 75 75 77 76 77 77 75 75 76 78 78 78 79 79 78 76 74 74 75 76 75 74 74 73
77 78 77 76 77 77 77 79 78 77 77 76 76 75 75 74 72 74 72 75 74 76 76 75 75 76 76 76 77 76 76 77 77 78 78 74 74 74 74 74 74 73 73
79 77 78 76 77 78 77 76 75 74 74 76 75 74 73 74 72 72 72 73 74 74 74 74 75 75 76 77 75 75 75 76 76 76 78 76 73 73 73 74 73 73 72
80 79 76 76 77 75 76 75 75 75 75 75 74 72 71 72 71 71 72 72 72 72 71 72 73 74 75 76 73 74 75 74 74 73 76 76 77 72 72 72 72 72 72
80 78 77 79 77 75 74 73 76 75 75 73 72 74 71 71 71 71 72 71 71 72 74 74 73 73 74 74 72 74 74 74 73 73 74 74 75 76 73 72 72 72 72
79 78 77 77 77 74 72 70 69 69 71 71 71 73 70 70 71 71 71 69 70 72 72 73 71 73 71 72 73 73 73 73 73 74 72 73 73 74 75 71 71 71 71
78 78 77 77 75 72 67 65 64 65 69 71 73 73 71 71 70 70 69 68 71 71 71 71 68 69 71 72 74 72 72 72 73 72 71 73 73 73 74 73 74 74 70
78 76 75 71 69 68 64 62 61 60 62 63 70 70 69 69 69 67 69 69 69 69 68 67 68 66 68 69 69 69 70 70 71 73 74 74 72 74 74 74 75 75 74
76 75 72 69 67 63 63 62 62 61 60 62 68 69 68 68 68 68 68 68 67 68 65 66 66 68 68 67 68 69 64 66 70 71 72 72 72 74 74 74 73 72 72
73 72 67 63 64 62 60 60 59 60 58 59 63 67 69 68 69 68 67 67 66 69 67 66 66 65 67 66 64 67 63 63 66 70 67 70 67 71 72 71 71 71 70
67 67 67 67 63 63 61 61 59 58 57 58 63 65 67 68 68 68 67 67 65 68 65 66 67 67 67 65 67 66 65 66 63 62 68 69 70 70 68 71 71 70 70
67 68 68 69 67 64 62 62 60 60 60 60 63 62 64 65 67 68 67 66 65 67 64 64 64 64 68 68 68 67 65 67 65 65 63 66 69 71 71 71 71 71 69
73 72 72 69 67 65 63 62 63 63 60 58 62 63 64 65 65 66 67 66 65 64 64 65 64 64 65 65 67 67 68 67 66 66 65 64 63 68 69 70 70 71 72